Location: Newark
(43.4306°N, 0.3089°E)
Time: 02:38:26
(UTC+00:00)

Tiros 1 - Visible Passes

Search period start: 25 August 2019 00:00
Search period end: 04 September 2019 00:00
Orbit: 631 x 664 km, 48.4° (Epoch: 24 August)

Date Brightness Start Highest point End Pass type
(mag) Time Alt. Az. Time Alt. Az. Time Alt. Az.
25 Aug 9.9 00:43:32 12° ENE 00:43:32 12° ENE 00:43:52 10° ENE visible
25 Aug 8.0 02:21:13 42° NNW 02:21:59 46° N 02:26:30 10° E visible
25 Aug 7.1 03:59:49 10° WNW 04:04:31 89° NE 04:09:14 10° ESE visible
26 Aug 9.5 01:08:48 18° ENE 01:08:48 18° ENE 01:10:06 10° ENE visible
26 Aug 7.6 02:46:30 34° NW 02:48:18 57° NNE 02:52:56 10° E visible
26 Aug 7.3 04:26:00 10° WNW 04:30:31 51° SW 04:35:05 10° SE visible
27 Aug 9.1 01:34:20 25° ENE 01:34:20 25° ENE 01:36:27 10° ENE visible
27 Aug 7.1 03:12:02 28° WNW 03:14:31 85° NNE 03:19:13 10° ESE visible
28 Aug 8.6 02:00:11 32° ENE 02:00:11 32° ENE 02:02:53 10° E visible
28 Aug 7.2 03:37:55 24° W 03:40:32 54° SSW 03:45:07 10° SE visible
29 Aug 8.3 02:26:28 35° ESE 02:26:28 35° ESE 02:29:11 10° ESE visible
29 Aug 8.0 04:04:14 19° W 04:06:23 27° SW 04:10:21 10° SSE visible
29 Aug 8.5 19:57:58 10° S 20:00:45 20° SSE 20:00:45 20° SSE visible
29 Aug 9.7 21:38:27 10° WSW 21:38:31 10° WSW 21:38:31 10° WSW visible
30 Aug 8.7 02:53:11 24° SE 02:53:11 24° SE 02:55:09 10° SE visible
30 Aug 8.9 04:30:59 12° WSW 04:32:02 13° SW 04:34:06 10° SSW visible
30 Aug 7.4 20:22:47 10° SW 20:27:07 41° SE 20:27:12 41° SE visible
30 Aug 9.8 22:04:38 10° W 22:04:56 12° W 22:04:56 12° W visible
31 Aug 9.4 03:20:13 11° SSE 03:20:13 11° SSE 03:20:28 10° SSE visible
31 Aug 8.5 19:08:11 10° S 19:11:24 19° SE 19:14:39 10° E visible
31 Aug 6.9 20:48:27 10° WSW 20:53:05 79° SSE 20:53:12 78° SE visible
01 Sep 7.6 19:32:52 10° SSW 19:37:09 38° SE 19:41:07 12° ENE visible
01 Sep 7.5 21:14:37 10° WSW 21:18:50 62° NW 21:18:50 62° NW visible
02 Sep 7.0 19:58:28 10° SW 20:03:05 74° SSE 20:06:29 18° ENE visible
02 Sep 8.5 21:41:00 10° W 21:44:09 37° WNW 21:44:09 37° WNW visible
03 Sep 7.3 20:24:35 10° WSW 20:29:13 68° NNW 20:31:36 28° ENE visible
03 Sep 9.3 22:07:24 10° WNW 22:09:17 22° WNW 22:09:17 22° WNW visible
